Other Public Products
Issued by NWS Grand Forks, ND

Home | Current Version | Previous Version | Text Only | Print | Product List | Glossary Off
Versions: 1 2 3 4 5 6 7 8 9 10 11 12 13 14 15 16 17 18 19 20 21 22 23 24 25 26 27 28 29 30 31 32 33 34 35 36 37 38 39 40 41 42 43 44 45 46 47 48 49 50

000
FPUS83 KFGF 292331
OPUFGF
PRAIRIE TO PINES WEATHER ROUNDUP
NATIONAL WEATHER SERVICE EASTERN NORTH DAKOTA/GRAND FORKS ND
600 PM CDT THU SEP 29 2016

 **SATELLITE DATA USED TO AUGMENT SKY COVER AT AUTOMATED STATIONS**
 *****  WEATHER ACROSS EASTERN NORTH DAKOTA  *****

CITY           SKY/WX    TMP DP  RH WIND       PRES   REMARKS
GRAND FORKS    MOSUNNY   66  45  46 S12       30.37F
GRAND FORKS AF SUNNY     65  47  52 S13       30.37S
GRAND CITY NWS   N/A     61 N/A N/A SE6         N/A
BUXTON           N/A     70  51  52 SE8         N/A
DEVILS LAKE    SUNNY     64  49  57 SE12      30.33F
FARGO          SUNNY     66  44  45 SE12      30.38F
WAHPETON ARPT  CLEAR     63  43  48 E10       30.38F
$$

 *****  WEATHER ACROSS CENTRAL AND WESTERN NORTH DAKOTA  *****

CITY           SKY/WX    TMP DP  RH WIND       PRES   REMARKS
JAMESTOWN      SUNNY     65  47  52 SE10      30.32F
BISMARCK       SUNNY     69  46  43 SE16      30.26S
MINOT          SUNNY     71  45  39 SE12      30.23S
MINOT AFB      SUNNY     70  45  41 SE18G24   30.22S
GARRISON         N/A     69  46  43 SE10G20   30.23F
WILLISTON      SUNNY     75  46  35 SE14G24   30.12F
DICKINSON      SUNNY     72  43  35 SE17G25   30.16S
HETTINGER      SUNNY     75  43  31 SE20      30.19S
$$

 *****  OTHER OBSERVATIONS NORTHEAST NORTH DAKOTA  *****

CITY           SKY/WX    TMP DP  RH WIND       PRES   REMARKS
WALHALLA       FAIR      63  57  82 SE13      30.36F
LANGDON        FAIR      63  48  59 SE15      30.36S
CAVALIER       FAIR      63  48  59 SE7       30.37S
GRAFTON        FAIR      63  48  59 SE8       30.38F
CANDO          FAIR      64  48  55 SE14G20   30.34S
FORT TOTTEN      N/A     66  47  50 S9        29.95S
ROLLA          FAIR      63  45  51 SE15      30.32S
RUGBY          FAIR      66  48  52 SE10G18   30.28S
 ***** THE ABOVE OBSERVATIONS ARE NON NWS ARE NOT QUALITY
        CONTROLLED AND MAY MIS-REPORT RAIN FOR SNOW...
$$

 *****  OTHER OBSERVATIONS SOUTHEAST NORTH DAKOTA *****

CITY           SKY/WX    TMP DP  RH WIND       PRES   REMARKS
COOPERSTOWN    FAIR      64  46  52 SE12G17   30.35F
VALLEY CITY    FAIR      63  46  55 SE15      30.37S
OAKES          NOT AVBL
GWINNER        FAIR      64  46  52 SE14      30.36S
SHEYENNE NWR     N/A     65  45  49 SE10      29.95S
BUFFALO          N/A     65  36  34 SE8         N/A
WYNDMERE         N/A     66  46  48 SE6         N/A
 ***** THE ABOVE OBSERVATIONS ARE NON NWS ARE NOT QUALITY
       CONTROLLED AND MAY MIS-REPORT RAIN FOR SNOW...
$$

  *****  WEATHER ACROSS NORTHERN MINNESOTA  *****

CITY           SKY/WX    TMP DP  RH WIND       PRES   REMARKS
FLAG ISLAND    CLEAR     57  46  67 E6        30.43F
WARROAD        CLEAR     59  52  77 E12       30.43F
ROSEAU         HAZE      63  48  59 E6        30.42S VSB<1/4
HALLOCK        SUNNY     64  48  55 S10       30.38S
THF RVR FALLS  SUNNY     63  45  51 SE9       30.41S
HALSTAD          N/A     65  45  48 S9          N/A
FOSSTON        SUNNY     63  45  51 E6        30.42F
BAUDETTE       CLOUDY    58  45  62 S6        30.45F
WASKISH        CLOUDY    57  46  67 SE5       30.45F
CROOKSTON      SUNNY     64  46  52 S8        30.40S
$$
  *****  WEATHER ACROSS CENTRAL AND WEST MINNESOTA  *****

CITY           SKY/WX    TMP DP  RH WIND       PRES   REMARKS
BEMIDJI        CLOUDY    56  46  67 SE7       30.44S
PARK RAPIDS    CLOUDY    60  43  53 E7        30.43F
WADENA         MOCLDY    57  46  67 E6        30.42F
DETROIT LAKES  SUNNY     59  45  58 SE6       30.42S
MOORHEAD       SUNNY     64  45  48 SE7       30.39F
FERGUS FALLS   SUNNY     63  46  55 SE7       30.42S
ELBOW LAKE     FAIR      60  47  62 SE8       30.40F
MORRIS MN      SUNNY     64  46  52 E10       30.39S
STAPLES        MOCLDY    59  45  58 E3        30.43F
WHEATON        SUNNY     66  48  52 E8        30.40F
$$
  *****  WEATHER ELSEWHERE ACROSS MINNESOTA  *****

CITY           SKY/WX    TMP DP  RH WIND       PRES   REMARKS
DULUTH         PTCLDY    56  47  71 E8        30.47S
INTRNTL FALLS  CLOUDY    57  49  74 SE5       30.47S
ELY            CLOUDY    55  46  71 CALM      30.48S
CLOQUET        CLEAR     55  45  67 E9        30.46F
BRAINERD       PTCLDY    61  48  62 E3        30.44F
HIBBING        CLOUDY    57  47  69 E3        30.46F
ALEXANDRIA     SUNNY     61  46  57 E7        30.42F
SAINT CLOUD    PTCLDY    64  50  60 E6        30.41F
MINNEAPOLIS    CLEAR     66  50  56 N8        30.39F
$$

  *****  WEATHER ACROSS SOUTH DAKOTA  *****

CITY           SKY/WX    TMP DP  RH WIND       PRES   REMARKS
SIOUX FALLS    SUNNY     68  48  48 SE7       30.35F
BROOKINGS      SUNNY     65  47  52 SE8       30.36F
WATERTOWN      SUNNY     65  47  52 E7        30.36F
HURON          SUNNY     68  46  45 SE9       30.33S
SISSETON         N/A     66  46  48 S9        30.36F
ABERDEEN       SUNNY     68  44  42 SE13      30.33F
MITCHELL       SUNNY     69  46  43 S12       30.34F
PIERRE         SUNNY     71  42  35 SE16      30.24F
MOBRIDGE       SUNNY     73  41  31 SE18      30.24F
RAPID CITY     SUNNY     81  44  27 S17G25    30.17F
$$

  *****  SOME WEATHER IN NEARBY STATES *****

CITY           SKY/WX    TMP DP  RH WIND       PRES   REMARKS
GLASGOW MT     SUNNY     78  45  30 SE20      30.01F
GREAT FALLS MT SUNNY     75  49  39 E10       30.01F
CHEYENNE WY    SUNNY     77  33  20 SE9       30.30S
SCOTTSBLUFF NE SUNNY     81  42  25 SE14      30.20F
OMAHA NE       SUNNY     72  47  40 NE7       30.32F
DES MOINES IA  SUNNY     73  45  36 N10       30.29F
DAVENPORT IA   CLOUDY    70  51  51 NE13      30.24R
CHICAGO IL     CLOUDY    63  57  81 NE15      30.21R
EAU CLAIRE WI  CLEAR     69  51  52 N3        30.37S
LA CROSSE WI   CLEAR     72  52  49 N7        30.33S
$$

  *****  SOME NATIONAL WEATHER *****

CITY           SKY/WX    TMP DP  RH WIND       PRES   REMARKS
LA GUARDIA NY  CLOUDY    64  53  67 E17       30.34S
RALEIGH NC     CLOUDY    74  69  85 SE3       30.01S
ATLANTA GA     PTCLDY    73  43  33 NW13      30.00R
NEW ORLEANS LA PTCLDY    84  63  49 N10       30.03S
OKLAHOMA CITY  PTSUNNY   71  47  42 N8        30.26F
ALBUQUERQUE NM CLOUDY    83  40  21 CALM      30.29F
SALT LAKE CITY PTSUNNY   72  52  49 N14       30.17F
LOS ANGELES CA MOSUNNY   77  60  55 W16       29.99S
BOISE ID       SUNNY     90  33  13 SW7       29.95F
SEATTLE WA     CLOUDY    64  38  38 CALM      30.08S
$$

*** WEATHER ACROSS MANITOBA...SASKATCHEWAN AND ONTARIO ***
                ***ONTARIO***

CITY           SKY/WX    TMP DP  RH WIND       PRES   REMARKS
GERALDTON      MOCLDY    57  50  77 SE2       30.51R
THUNDER BAY    PTCLDY    61  52  72 E3        30.48S
SIOUX LOOKOUT  CLOUDY    54  46  76 S3        30.50S
TORONTO        LGT RAIN  59  55  88 E10       30.34R
BIG TROUT LK   CLOUDY    57  48  72 SE2       30.44F
PICKLE LAKE    MOCLDY    55  45  67 SW6       30.49F
DRYDEN         CLOUDY    54  46  76 SE5       30.48F
KENORA         MOCLDY    55  45  67 S5        30.46F
$$
                *** MANITOBA***

CITY           SKY/WX    TMP DP  RH WIND       PRES   REMARKS
BRANDON        MOSUNNY   66  48  52 SE16G22   30.29S
DAUPHIN        SUNNY     68  48  49 S7        30.24S
ISLAND LAKE    CLOUDY    55  52  88 SE5       30.40S
PILOT MOUND      N/A     63  46  55 SE15        N/A
THE PAS        PTSUNNY   55  50  82 SE12      30.24R
THOMPSON       MOCLDY    55  45  67 CALM      30.32S
WINNIPEG       MOSUNNY   63  48  59 S12       30.37F
LYNN LAKE      SUNNY     61  36  39 S8        30.24F
CHURCHILL      MOCLDY    57  37  47 S7        30.23F
GILLAM         MOCLDY    55  39  54 S3        30.35F
$$
                ***SASKATCHEWAN***

CITY           SKY/WX    TMP DP  RH WIND       PRES   REMARKS
ESTEVAN        MOSUNNY   72  46  40 SE16G26   30.16F
KINDERSLEY     MOSUNNY   59  48  67 NE17      30.08F
LLOYDMINSTER   MOSUNNY   63  43  48 E9        30.12F
PRINCE ALBERT  PTSUNNY   59  48  67 NE10      30.15F
REGINA         MOSUNNY   77  39  25 SE22G30   30.08S
YORKTON        SUNNY     70  48  46 SE17G30   30.16S   C1F1C2F2C3F3C4F4C5F5C6F6C7F7C8F8C9F9CaFaCbFbCcFcCdFdCe!



USA.gov is the U.S. government's official web portal to all federal, state and local government web resources and services.